Location: Gartempe
(46.1501°N, 1.7371°E)
Time: 21:39:55
(UTC+00:00)

Daily predictions for brighter satellites

Satellite Brightness Start Highest point End
(mag) Time Altitude Azimuth Time Altitude Azimuth Time Altitude Azimuth
CREW DRAGON DEMO-1 DEB 3.1 17:14:32 10° NW 17:17:21 45° NNE 17:20:09 10° E
Meteor 1-24 Rocket 3.6 17:13:12 10° S 17:18:31 84° E 17:23:51 10° NNE
COSMO-SKYMED 1 3.6 17:16:31 10° NE 17:20:14 27° E 17:23:55 10° SSE
Meteor 2-10 Rocket 3.8 17:15:08 10° N 17:20:29 51° ENE 17:25:35 10° SSE
Cosmos 1844 Rocket 3.1 17:18:24 10° S 17:23:42 43° ESE 17:29:00 10° NE
NOAA 12 4.4 17:22:43 10° S 17:27:56 74° WSW 17:33:11 10° NNW
Cosmos 2279 Rocket 4.1 17:24:37 10° N 17:30:56 90° ENE 17:37:11 10° S
CZ-4B R/B 1.9 17:32:42 10° NNE 17:35:51 36° E 17:38:54 10° SSE
Cosmos 1939 Rocket 2.9 17:35:16 10° SSE 17:39:20 65° ENE 17:43:23 10° N
Cosmos 2278 Rocket 4.0 17:40:08 10° ESE 17:41:17 11° E 17:41:33 11° E
Aureole 3 3.4 17:38:44 10° N 17:41:45 31° ENE 17:44:30 10° SE
OE (NEXTSAT) 4.3 17:38:46 10° W 17:42:13 87° S 17:44:59 15° E
Okean O Rocket 2.1 17:39:43 10° S 17:44:08 66° WSW 17:48:33 10° NNW
CZ-4B R/B 3.8 17:38:45 10° S 17:44:15 64° WSW 17:49:53 10° NNW
Cosmos 2228 4.4 17:41:57 10° NNW 17:46:01 43° W 17:50:05 10° SSW
TELKOM 3 3.2 17:44:21 10° W 17:46:35 56° NNW 17:48:01 20° ENE
Okean-O 3.4 17:42:56 10° SE 17:46:49 30° ENE 17:50:43 10° N
H-2A R/B 2.5 17:42:46 10° N 17:47:11 65° WNW 17:51:28 10° SSW
ATLAS 5 CENTAUR R/B 3.3 17:43:41 10° W 17:47:12 25° NNW 17:51:07 10° NNE
Cosmos 44 4.1 17:45:15 10° S 17:49:30 33° ESE 17:53:00 15° ENE
Feng Yun 1-1 Rocket 4.2 17:44:24 10° SSE 17:49:48 70° ENE 17:55:21 10° N
YAOGAN 1 3.3 17:46:37 10° SE 17:50:25 31° ENE 17:54:15 10° N
X-37B 1.1 17:47:41 10° WSW 17:50:47 51° SSE 17:52:52 19° E
Cosmos 1892 Rocket 3.7 17:47:02 10° SSW 17:51:21 75° W 17:55:42 10° N
Cosmos 158 Rocket 4.0 17:47:19 10° NNW 17:52:39 63° ENE 17:58:00 10° SSE
Aureole 2 Rocket 2.3 17:49:46 10° SSW 17:52:47 71° WNW 17:55:54 10° NNE
ATLAS 2AS CENTAUR R/B 4.3 17:48:39 10° W 17:55:26 30° NNW 18:02:04 10° NNE
MOS 1 Rocket 3.2 17:52:49 10° NNE 17:56:59 48° E 18:01:09 10° S
CZ-4 R/B 1.8 17:54:07 10° SE 17:57:56 40° ENE 18:01:42 10° N
CZ-2D R/B 3.1 17:54:58 10° SSE 17:58:48 70° ENE 18:02:38 10° N
Cosmos 489 Rocket 4.5 17:52:52 10° NNW 17:59:16 79° ENE 18:05:35 10° SSE
Meteor 1-21 Rocket 4.3 17:54:23 10° S 17:59:45 55° E 18:05:11 10° NNE
COSMOS 2455 3.2 17:54:15 10° SW 18:00:13 66° NW 18:06:15 10° NNE
SJ 16-02 1.3 17:55:54 10° SSW 18:00:18 77° ESE 18:04:43 10° NNE
CZ-3B R/B 2.2 18:00:44 10° NW 18:03:12 47° NE 18:08:40 13° ESE
Cosmos 1812 Rocket 4.1 17:59:38 10° N 18:03:44 36° ENE 18:07:45 10° SE
PSLV R/B 4.4 18:00:45 10° NNE 18:04:43 39° E 18:08:40 10° SSE
SKYMED 2 3.5 18:04:06 10° NNE 18:08:28 84° ESE 18:12:48 10° SSW
Cosmos 923 Rocket 4.0 18:05:40 10° NNW 18:11:02 80° ENE 18:16:21 10° SSE
Cosmos 1340 3.2 18:08:01 10° SSE 18:11:25 34° E 18:12:36 27° ENE
Cosmos 1455 2.1 18:07:40 10° N 18:11:31 89° W 18:15:21 10° S
Aureole 1 4.3 18:11:34 10° NNW 18:14:34 73° WSW 18:17:44 10° SSE
ERS-2 2.1 18:11:59 14° NNE 18:14:57 57° ESE 18:18:31 10° S
Cosmos 1898 Rocket 3.8 18:10:03 10° S 18:15:01 45° ESE 18:18:36 18° NE
Cosmos 2263 Rocket 4.2 18:10:40 10° W 18:15:06 23° NW 18:19:33 10° N
Cosmos 1092 Rocket 4.0 18:09:19 10° S 18:15:21 58° E 18:21:22 10° NNE
Cosmos 1689 Rocket 2.5 18:17:18 38° ESE 18:17:18 38° ESE 18:19:40 10° S
Iridium 4 Rocket 3.8 18:11:36 10° N 18:17:00 46° E 18:21:57 10° SSE
Cosmos 1680 Rocket 3.4 18:12:01 10° NNW 18:17:16 69° ENE 18:22:27 10° SSE
USA 234 4.1 18:14:03 19° ENE 18:17:55 35° N 18:23:44 10° NW
IRS-1C Rocket 4.0 18:12:49 10° SSE 18:18:05 89° ENE 18:23:22 10° NNW
ARGOS 3.4 18:16:49 10° SE 18:21:54 46° ENE 18:27:01 10° N
Cosmos 2344 4.3 18:13:32 10° NW 18:22:27 59° NE 18:34:43 10° ESE
NOAA 15 4.5 18:17:29 10° SSE 18:22:41 69° ENE 18:27:56 10° N
H-2A R/B 1.9 18:18:36 10° SSE 18:23:32 64° ENE 18:28:38 10° N
Lacrosse 5 2.7 18:22:13 10° WNW 18:27:06 50° SW 18:31:56 10° SSE
Meteor 2-1 Rocket 4.5 18:22:17 10° NNW 18:27:48 70° W 18:33:15 10° S
Cosmos 2098 Rocket 4.5 18:21:56 10° SSE 18:28:50 51° E 18:35:56 10° NNE
Nadezhda 4 Rocket 4.2 18:23:17 10° SSW 18:29:31 71° W 18:35:43 10° N
CZ-2C R/B 3.3 18:29:46 29° ENE 18:31:23 34° E 18:36:26 10° SSE
NOSS 2-1 (E) 2.9 18:30:52 10° SSW 18:34:08 55° SE 18:34:10 55° ESE
ISS -3.2 18:30:58 10° W 18:34:17 49° NNW 18:34:48 44° NNE
Cosmos 1703 3.2 18:33:47 10° S 18:37:40 81° W 18:40:54 15° N
Cosmos 1818 4.3 18:34:22 10° WSW 18:39:40 51° NW 18:43:39 18° NNE
CZ-2C R/B 3.8 18:34:39 10° S 18:39:54 58° W 18:45:29 10° NNW
CSL-04 Debris 4.0 18:35:35 10° SSE 18:40:55 66° ENE 18:46:16 10° N
Cosmos 1626 Rocket 3.9 18:37:19 10° SSW 18:41:39 64° W 18:46:05 10° N
COSMOS 2406 3.4 18:36:14 10° NNW 18:41:53 51° ENE 18:44:01 34° ESE
Cosmos 1937 Rocket 3.5 18:40:16 10° S 18:45:28 60° ESE 18:47:28 36° NE
Cosmos 1833 Rocket 2.8 18:43:18 10° NNW 18:48:47 49° ENE 18:49:44 45° E
Helios 1A Rocket 2.9 18:45:30 10° SSE 18:49:38 83° WSW 18:53:49 10° NNW
Meteor 2-19 Rocket 4.4 18:44:48 10° S 18:50:51 63° E 18:56:56 10° NNE
SAR-Lupe-4 3.9 18:49:58 32° N 18:51:27 63° WNW 18:54:58 10° SSW
CREW DRAGON DEMO-1 DEB 4.4 18:49:51 10° WNW 18:52:22 30° SW 18:52:22 30° SW
Cosmos 1844 4.5 18:49:53 10° SW 18:55:22 50° WNW 19:00:15 14° NNE
Cosmos 2112 Rocket 4.3 18:50:30 10° NNW 18:55:42 67° WSW 19:00:51 10° S
COSMO-SKYMED 1 4.3 18:52:32 10° N 18:56:25 32° WNW 19:00:15 10° SW
CZ-4C R/B 4.4 18:52:35 10° NW 18:56:27 17° N 18:59:06 14° NNE
Cosmos 2082 Rocket 3.0 18:52:18 10° NNW 18:56:34 33° NNE 18:56:34 33° NNE
Cosmos 1417 Rocket 4.4 18:57:09 10° N 19:03:17 59° ENE 19:06:53 26° SSE
Cosmos 1758 Rocket 3.5 19:00:52 10° S 19:05:19 89° WNW 19:05:48 71° N
Cosmos 2026 Rocket 4.0 18:59:43 10° SSW 19:05:50 79° W 19:12:06 10° N
Cosmos 1553 Rocket 3.9 19:00:53 10° N 19:07:19 73° E 19:13:39 10° SSE
NOSS 3-1 (C) 4.1 18:59:50 10° NW 19:07:22 80° SW 19:15:32 12° SSE
Cosmos 1844 Rocket 4.1 19:02:33 10° WSW 19:07:41 35° NW 19:12:26 12° N
CZ-4B R/B 4.4 19:05:49 10° NNW 19:07:44 15° WNW 19:09:38 10° W
Meteor 2-15 4.4 19:07:00 10° N 19:13:12 85° W 19:19:20 10° S
Cosmos-2242 4.1 19:17:34 10° NNW 19:20:15 37° NNW 19:20:15 37° NNW
Cosmos 2278 Rocket 2.3 19:18:39 10° SSW 19:23:28 62° SSE 19:23:28 62° SSE
USA 267 3.8 19:26:05 41° SSE 19:26:05 41° SSE 19:31:20 10° SSW
USA 229 DEB 3.9 19:18:42 10° NW 19:26:03 81° SW 19:29:23 38° SSE
USA 229 3.9 19:18:48 10° NW 19:26:08 81° SW 19:29:23 39° SSE
X-37B 3.4 19:24:08 10° W 19:25:09 19° W 19:25:09 19° W
CSL-04 Rocket 4.3 19:23:09 10° S 19:28:27 55° W 19:33:51 10° NNW
Cosmos 44 4.4 19:26:02 10° WSW 19:30:38 41° NW 19:31:28 38° NNW
S3M 4.0 19:24:43 10° N 19:29:52 62° NNE 19:29:52 62° NNE
CZ-4 R/B 4.1 19:30:11 10° SW 19:33:06 19° W 19:36:00 10° NW
ATLAS 5 CENTAUR R/B 4.3 19:32:06 10° NNW 19:33:38 11° N 19:33:42 11° N
SJ 16-02 4.2 19:37:07 10° W 19:39:27 14° NW 19:41:48 10° NNW
NOSS 3-1 (A) 4.1 19:34:02 10° NW 19:41:36 78° SW 19:44:37 45° SSE
ATLAS 2AS CENTAUR R/B 4.5 19:43:30 10° NW 19:49:05 21° N 19:50:17 20° NNE
USA 234 3.7 20:01:24 51° NNW 20:01:24 51° NNW 20:06:37 10° NW
CZ-2C R/B 3.9 20:11:15 38° NW 20:11:41 39° WNW 20:16:50 10° SW
Cosmos 2082 Rocket 4.3 20:36:20 10° NW 20:38:28 22° NW 20:38:28 22° NW
